TimeCDT,TemperatureF,Dew PointF,Humidity,Sea Level PressureIn,VisibilityMPH,Wind Direction,Wind SpeedMPH,Gust SpeedMPH,PrecipitationIn,Events,Conditions,WindDirDegrees,DateUTC
12:52 AM,70.0,66.9,90,29.85,-9999.0,Calm,Calm,-,N/A,,Unknown,0,2013-07-22 05:52:00
1:52 AM,68.0,66.0,93,29.83,-9999.0,Calm,Calm,-,N/A,,Unknown,0,2013-07-22 06:52:00
2:52 AM,68.0,66.0,93,29.81,-9999.0,Calm,Calm,-,N/A,,Unknown,0,2013-07-22 07:52:00
3:52 AM,68.0,66.0,93,29.80,-9999.0,Calm,Calm,-,N/A,,Unknown,0,2013-07-22 08:52:00
4:52 AM,66.9,64.9,93,29.81,-9999.0,Calm,Calm,-,N/A,,Unknown,0,2013-07-22 09:52:00
5:52 AM,68.0,66.0,93,29.80,-9999.0,Calm,Calm,-,N/A,,Unknown,0,2013-07-22 10:52:00
6:52 AM,68.0,66.9,96,29.82,-9999.0,Calm,Calm,-,N/A,,Unknown,0,2013-07-22 11:52:00
7:52 AM,71.1,69.1,93,29.81,-9999.0,Calm,Calm,-,N/A,,Unknown,0,2013-07-22 12:52:00
8:52 AM,75.9,70.0,82,29.84,-9999.0,South,5.8,-,N/A,,Unknown,190,2013-07-22 13:52:00
9:52 AM,80.1,73.0,79,29.83,-9999.0,South,5.8,-,N/A,,Unknown,180,2013-07-22 14:52:00
10:52 AM,84.0,72.0,67,29.81,-9999.0,SSW,3.5,-,N/A,,Unknown,210,2013-07-22 15:52:00
11:52 AM,87.1,73.0,63,29.81,-9999.0,SSE,5.8,-,N/A,,Unknown,160,2013-07-22 16:52:00
12:52 PM,88.0,71.1,57,29.80,-9999.0,South,6.9,-,N/A,,Unknown,170,2013-07-22 17:52:00
1:52 PM,89.1,70.0,53,29.78,-9999.0,South,9.2,-,N/A,,Unknown,190,2013-07-22 18:52:00
2:52 PM,90.0,70.0,52,29.78,-9999.0,SSE,9.2,-,N/A,,Unknown,160,2013-07-22 19:52:00
3:52 PM,90.0,71.1,54,29.77,-9999.0,South,11.5,-,N/A,,Unknown,190,2013-07-22 20:52:00
4:52 PM,91.0,72.0,53,29.76,-9999.0,SSW,10.4,-,N/A,,Unknown,200,2013-07-22 21:52:00
5:52 PM,91.9,71.1,50,29.74,-9999.0,SSW,5.8,-,N/A,,Unknown,200,2013-07-22 22:52:00
6:52 PM,91.9,72.0,52,29.73,-9999.0,Calm,Calm,-,N/A,,Unknown,0,2013-07-22 23:52:00
7:52 PM,87.1,75.0,67,29.73,-9999.0,Calm,Calm,-,N/A,,Unknown,0,2013-07-23 00:52:00
8:52 PM,82.9,75.0,77,29.74,-9999.0,Calm,Calm,-,N/A,,Unknown,0,2013-07-23 01:52:00
9:52 PM,81.0,75.0,82,29.77,-9999.0,South,3.5,-,N/A,,Unknown,170,2013-07-23 02:52:00
10:52 PM,82.9,71.1,67,29.78,-9999.0,Calm,Calm,-,N/A,,Unknown,0,2013-07-23 03:52:00
11:52 PM,79.0,71.1,77,29.80,-9999.0,Calm,Calm,-,N/A,,Unknown,0,2013-07-23 04:52:00